Temp
-21 -21 -20 -20 -20 -20 -20 -21 -21 -20 -20 -20 -21 -21 -21 -21 -21 -21 -21 -22 -23 -23 -23 -23 -24 -23 -24 -24 -24 -24 -24 -24 -24 -25 -25 -27 -27 -26 -26 -26 -26 -26 -26 -26 -26 -26 -25 -25 -25 -25 -25 -24 -24 -24
-23 -22 -22 -22 -22 -22 -22 -22 -22 -22 -22 -22 -22 -23 -23 -23 -23 -23 -23 -23 -24 -23 -24 -24 -24 -24 -24 -24 -24 -24 -24 -25 -25 -26 -27 -28 -27 -27 -27 -26 -26 -26 -26 -26 -26 -25 -25 -24 -25 -25 -25 -25 -25 -25
-23 -23 -23 -22 -22 -22 -23 -23 -23 -23 -23 -23 -23 -23 -24 -24 -23 -23 -23 -24 -24 -24 -24 -24 -25 -25 -25 -25 -25 -25 -26 -27 -28 -28 -28 -28 -28 -28 -28 -27 -27 -27 -27 -26 -26 -26 -26 -25 -25 -25 -25 -25 -25 -25
-24 -24 -23 -23 -23 -23 -23 -23 -23 -23 -23 -24 -24 -24 -24 -24 -24 -24 -24 -24 -24 -25 -25 -25 -25 -25 -25 -25 -26 -27 -28 -29 -28 -28 -29 -28 -28 -28 -28 -28 -27 -27 -27 -27 -26 -26 -26 -26 -26 -26 -26 -26 -26 -26
-24 -24 -24 -24 -24 -24 -24 -24 -24 -24 -24 -24 -24 -24 -24 -25 -25 -25 -25 -25 -25 -25 -25 -25 -25 -26 -26 -27 -28 -28 -29 -29 -29 -29 -29 -29 -29 -29 -28 -28 -27 -27 -27 -27 -27 -26 -26 -26 -26 -26 -26 -26 -26 -26
-24 -24 -24 -24 -24 -24 -24 -25 -24 -25 -25 -25 -25 -25 -25 -25 -26 -26 -26 -26 -25 -25 -25 -26 -27 -28 -28 -29 -29 -29 -29 -29 -29 -29 -29 -28 -29 -29 -28 -27 -27 -28 -28 -27 -27 -27 -27 -26 -26 -27 -27 -27 -26 -26
-26 -26 -26 -26 -26 -26 -25 -25 -25 -25 -25 -25 -26 -26 -26 -26 -26 -26 -26 -26 -26 -27 -28 -28 -29 -30 -30 -30 -29 -29 -29 -29 -29 -29 -29 -29 -29 -29 -27 -27 -29 -29 -28 -28 -27 -27 -27 -27 -27 -26 -26 -26 -26 -26
-26 -26 -26 -26 -26 -26 -26 -26 -26 -26 -27 -27 -27 -27 -28 -28 -28 -28 -28 -29 -29 -30 -30 -30 -30 -31 -30 -30 -30 -30 -29 -29 -29 -29 -29 -29 -29 -28 -27 -28 -29 -28 -28 -27 -27 -27 -27 -27 -27 -27 -27 -27 -26 -26
-26 -26 -27 -27 -27 -27 -27 -27 -28 -28 -28 -28 -28 -29 -30 -30 -30 -30 -30 -31 -31 -31 -31 -31 -31 -31 -31 -30 -30 -30 -29 -29 -29 -29 -29 -28 -28 -28 -29 -28 -28 -28 -28 -28 -28 -28 -27 -27 -27 -27 -27 -27 -27 -26
-27 -27 -28 -28 -28 -29 -29 -30 -30 -30 -30 -30 -31 -31 -31 -31 -31 -31 -31 -31 -31 -31 -31 -31 -31 -31 -31 -31 -30 -30 -30 -30 -29 -29 -29 -29 -28 -28 -28 -28 -28 -28 -28 -28 -28 -28 -28 -28 -28 -28 -27 -27 -27 -26
-30 -30 -30 -30 -30 -30 -30 -31 -31 -31 -31 -31 -31 -31 -31 -31 -31 -31 -31 -32 -31 -31 -32 -32 -32 -32 -31 -31 -31 -31 -30 -30 -30 -30 -29 -28 -28 -28 -28 -28 -28 -27 -28 -28 -28 -28 -28 -28 -28 -27 -27 -27 -27 -27
-31 -31 -31 -31 -32 -31 -31 -31 -31 -32 -31 -31 -31 -31 -31 -32 -32 -32 -32 -32 -32 -32 -32 -32 -32 -32 -32 -31 -31 -31 -30 -30 -30 -30 -29 -29 -29 -29 -28 -28 -28 -28 -28 -28 -28 -28 -28 -27 -27 -27 -27 -27 -27 -26
-32 -32 -32 -32 -32 -32 -32 -32 -32 -32 -32 -32 -32 -32 -31 -32 -32 -32 -31 -31 -31 -31 -31 -32 -32 -32 -32 -31 -31 -31 -31 -30 -30 -30 -29 -29 -29 -29 -29 -29 -28 -28 -28 -28 -28 -28 -28 -28 -28 -28 -27 -27 -27 -27
-32 -32 -32 -32 -32 -32 -32 -32 -32 -32 -32 -32 -31 -32 -32 -31 -31 -31 -32 -31 -31 -31 -31 -31 -31 -31 -31 -31 -31 -31 -31 -30 -30 -30 -29 -29 -29 -29 -29 -28 -29 -28 -28 -28 -28 -28 -28 -28 -28 -27 -27 -27 -27 -27
-31 -31 -32 -33 -32 -32 -32 -32 -32 -32 -32 -32 -32 -31 -31 -31 -32 -31 -31 -31 -30 -30 -30 -30 -30 -30 -30 -30 -30 -30 -30 -30 -30 -30 -29 -29 -29 -29 -29 -29 -29 -29 -28 -28 -28 -28 -28 -28 -28 -28 -27 -27 -27 -27
-30 -30 -30 -31 -32 -32 -32 -32 -32 -32 -32 -32 -31 -31 -31 -31 -31 -30 -30 -30 -31 -30 -30 -30 -30 -30 -30 -30 -30 -30 -30 -30 -29 -29 -30 -30 -29 -29 -29 -29 -28 -29 -29 -28 -28 -28 -28 -28 -28 -28 -28 -28 -27 -27
-30 -30 -30 -31 -31 -31 -31 -32 -31 -31 -31 -31 -31 -31 -31 -31 -30 -30 -30 -30 -30 -30 -30 -30 -30 -30 -30 -30 -30 -29 -30 -30 -30 -30 -30 -29 -29 -29 -29 -29 -29 -29 -28 -28 -28 -28 -28 -27 -27 -27 -27 -28 -28 -28
-30 -30 -30 -30 -30 -31 -31 -31 -31 -31 -30 -30 -30 -31 -31 -31 -31 -31 -31 -31 -31 -31 -31 -30 -30 -30 -30 -30 -30 -30 -30 -30 -29 -29 -30 -29 -29 -29 -29 -29 -29 -29 -29 -28 -28 -28 -28 -28 -28 -28 -28 -28 -28 -28
-30 -30 -30 -30 -30 -30 -30 -30 -30 -30 -30 -30 -30 -30 -31 -31 -31 -31 -31 -31 -30 -30 -30 -30 -30 -30 -30 -30 -30 -30 -30 -30 -30 -29 -29 -29 -29 -29 -29 -29 -29 -29 -28 -28 -28 -28 -28 -28 -28 -28 -29 -29 -29 -29
-29 -29 -30 -30 -30 -30 -30 -30 -30 -30 -31 -31 -31 -31 -31 -31 -31 -31 -30 -30 -30 -30 -30 -30 -30 -30 -30 -30 -30 -30 -29 -29 -29 -29 -29 -29 -29 -29 -29 -29 -29 -29 -29 -29 -28 -28 -28 -29 -29 -29 -29 -30 -29 -29
-28 -29 -29 -29 -29 -29 -30 -30 -30 -30 -30 -30 -30 -30 -30 -31 -31 -31 -31 -31 -31 -31 -31 -31 -31 -31 -31 -31 -31 -31 -31 -31 -30 -30 -30 -30 -30 -30 -30 -30 -30 -30 -30 -30 -30 -30 -30 -30 -30 -30 -30 -30 -30 -30
-28 -28 -28 -28 -29 -29 -29 -29 -29 -29 -29 -30 -29 -30 -30 -30 -30 -30 -31 -30 -31 -31 -31 -32 -32 -32 -31 -31 -31 -31 -31 -31 -31 -31 -31 -31 -31 -31 -31 -31 -31 -31 -31 -31 -31 -31 -30 -30 -30 -30 -30 -30 -30 -30
-27 -28 -28 -28 -28 -29 -29 -29 -29 -29 -29 -29 -29 -29 -29 -30 -30 -30 -30 -30 -31 -31 -31 -31 -31 -31 -31 -31 -31 -31 -31 -31 -31 -31 -31 -31 -32 -32 -32 -33 -33 -33 -32 -32 -32 -31 -31 -31 -30 -30 -30 -30 -30 -30
-27 -27 -28 -28 -28 -28 -28 -29 -29 -29 -29 -29 -30 -30 -30 -30 -30 -30 -30 -30 -30 -31 -31 -31 -31 -31 -31 -31 -31 -31 -31 -31 -31 -31 -31 -32 -32 -32 -33 -33 -33 -33 -33 -33 -32 -32 -32 -31 -31 -31 -31 -31 -31 -31
-27 -27 -27 -28 -28 -28 -28 -28 -29 -29 -29 -29 -30 -30 -30 -30 -30 -30 -30 -30 -31 -31 -31 -31 -31 -31 -31 -31 -31 -31 -31 -31 -31 -31 -32 -32 -33 -33 -34 -34 -34 -34 -34 -34 -33 -33 -33 -32 -32 -32 -31 -31 -31 -31
-27 -27 -27 -27 -28 -28 -28 -28 -28 -29 -29 -29 -29 -29 -29 -30 -30 -30 -30 -31 -31 -31 -31 -31 -31 -31 -31 -31 -31 -31 -31 -31 -31 -32 -32 -33 -33 -34 -34 -35 -35 -35 -35 -35 -34 -34 -33 -33 -33 -33 -32 -32 -32 -32
-26 -27 -27 -27 -27 -27 -28 -28 -28 -28 -28 -28 -28 -28 -29 -29 -29 -29 -30 -30 -30 -31 -31 -31 -31 -31 -31 -31 -32 -32 -31 -31 -32 -32 -32 -33 -34 -34 -35 -35 -35 -35 -35 -35 -35 -35 -34 -34 -34 -33 -33 -33 -33 -33
-26 -26 -26 -26 -27 -27 -27 -27 -28 -27 -28 -28 -28 -28 -28 -28 -29 -29 -30 -30 -30 -31 -31 -31 -31 -31 -31 -32 -32 -32 -31 -32 -32 -32 -33 -33 -34 -35 -35 -35 -36 -36 -36 -36 -35 -35 -35 -35 -34 -34 -34 -34 -34 -33
-26 -26 -26 -26 -26 -27 -27 -27 -27 -27 -27 -27 -28 -28 -28 -28 -28 -29 -29 -30 -30 -31 -31 -31 -32 -32 -32 -32 -32 -32 -32 -32 -32 -32 -33 -33 -34 -35 -36 -36 -36 -36 -36 -36 -36 -36 -36 -36 -35 -35 -35 -35 -34 -34
-26 -26 -26 -26 -26 -27 -27 -27 -27 -27 -27 -27 -28 -28 -28 -28 -29 -29 -29 -30 -30 -30 -31 -31 -32 -32 -32 -32 -32 -32 -32 -33 -33 -33 -33 -34 -35 -35 -36 -36 -37 -37 -37 -37 -36 -36 -37 -36 -36 -36 -35 -35 -35 -35
-26 -26 -26 -26 -26 -26 -27 -27 -27 -27 -27 -28 -28 -28 -28 -28 -29 -29 -29 -30 -30 -30 -30 -31 -31 -32 -32 -33 -33 -33 -32 -33 -33 -33 -34 -34 -35 -35 -36 -36 -36 -37 -37 -37 -37 -37 -37 -37 -37 -36 -36 -36 -36 -36
-26 -26 -26 -26 -27 -27 -27 -27 -27 -28 -28 -28 -28 -28 -28 -28 -29 -29 -29 -30 -30 -30 -30 -31 -31 -31 -32 -33 -33 -33 -33 -33 -34 -34 -34 -34 -35 -35 -36 -36 -36 -36 -36 -36 -37 -37 -37 -37 -37 -37 -37 -37 -37 -36
-26 -26 -26 -26 -27 -27 -27 -27 -27 -27 -28 -28 -28 -28 -28 -28 -29 -29 -29 -29 -30 -30 -30 -30 -31 -31 -32 -32 -33 -33 -33 -33 -34 -34 -34 -34 -35 -35 -36 -36 -36 -36 -36 -36 -36 -37 -37 -37 -37 -36 -36 -36 -36 -36
Height
5405 5416 5427 5436 5445 5453 5459 5463 5471 5477 5481 5488 5493 5499 5505 5510 5514 5519 5522 5526 5530 5533 5535 5538 5538 5540 5542 5544 5543 5543 5541 5539 5537 5535 5531 5527 5525 5523 5524 5528 5534 5533 5531 5532 5527 5525 5526 5527 5528 5528 5527 5525 5522 5524
5404 5414 5423 5431 5438 5445 5451 5459 5464 5469 5474 5481 5486 5491 5496 5501 5506 5509 5513 5517 5521 5523 5527 5527 5528 5528 5530 5531 5530 5529 5527 5521 5518 5516 5516 5517 5515 5512 5512 5518 5521 5523 5522 5522 5520 5518 5518 5515 5516 5517 5519 5516 5518 5518
5402 5410 5418 5425 5433 5440 5447 5453 5458 5463 5469 5475 5481 5486 5490 5494 5497 5501 5504 5508 5511 5514 5516 5518 5517 5516 5516 5515 5514 5514 5508 5502 5502 5501 5501 5501 5501 5502 5505 5506 5508 5510 5510 5511 5509 5511 5510 5509 5509 5509 5511 5511 5511 5510
5399 5406 5413 5421 5429 5436 5442 5448 5453 5458 5464 5470 5475 5479 5484 5488 5491 5493 5496 5499 5502 5504 5507 5507 5505 5504 5501 5501 5498 5496 5494 5489 5487 5488 5488 5488 5489 5490 5492 5495 5495 5497 5498 5499 5499 5502 5499 5502 5500 5502 5503 5503 5503 5503
5398 5405 5412 5419 5425 5432 5437 5443 5449 5454 5460 5465 5469 5474 5477 5480 5481 5484 5487 5491 5493 5496 5496 5495 5494 5490 5488 5486 5485 5483 5483 5480 5479 5479 5478 5479 5480 5479 5480 5483 5481 5486 5489 5486 5487 5490 5489 5494 5492 5493 5494 5495 5496 5495
5397 5403 5410 5416 5423 5429 5435 5440 5444 5450 5455 5459 5462 5465 5468 5471 5474 5476 5478 5481 5482 5482 5483 5483 5479 5476 5474 5473 5472 5471 5470 5470 5469 5470 5470 5470 5470 5468 5470 5471 5472 5475 5476 5475 5479 5478 5479 5485 5484 5485 5486 5488 5488 5488
5396 5402 5408 5414 5420 5426 5431 5436 5440 5445 5448 5451 5455 5458 5461 5462 5464 5468 5469 5470 5470 5469 5469 5469 5468 5466 5465 5464 5463 5463 5464 5464 5464 5464 5464 5463 5463 5462 5463 5463 5464 5462 5462 5463 5469 5469 5472 5474 5474 5476 5478 5480 5481 5480
5397 5402 5406 5411 5417 5423 5427 5431 5435 5439 5443 5446 5449 5451 5453 5453 5454 5456 5457 5457 5458 5458 5458 5461 5460 5457 5458 5458 5457 5457 5457 5457 5458 5458 5458 5458 5458 5457 5457 5456 5455 5455 5455 5457 5459 5459 5461 5463 5465 5466 5466 5468 5470 5470
5396 5399 5404 5409 5414 5418 5422 5426 5429 5432 5436 5439 5441 5443 5445 5446 5447 5448 5451 5452 5451 5452 5452 5452 5453 5451 5449 5450 5450 5450 5451 5451 5453 5453 5453 5452 5451 5452 5451 5448 5448 5448 5449 5450 5451 5452 5454 5455 5455 5456 5457 5458 5458 5461
5390 5394 5398 5402 5407 5412 5416 5420 5423 5427 5431 5434 5436 5439 5440 5442 5442 5444 5444 5445 5445 5445 5444 5444 5442 5442 5442 5441 5443 5444 5445 5445 5446 5448 5447 5447 5448 5446 5445 5445 5445 5445 5445 5445 5446 5447 5447 5447 5447 5448 5449 5449 5449 5451
5382 5388 5392 5397 5402 5406 5411 5416 5419 5424 5427 5429 5433 5436 5437 5438 5439 5439 5440 5440 5438 5437 5435 5435 5434 5432 5431 5433 5435 5437 5438 5439 5440 5443 5442 5443 5442 5443 5442 5442 5442 5441 5441 5441 5441 5441 5442 5441 5440 5440 5440 5439 5440 5441
5379 5384 5389 5394 5399 5403 5407 5413 5417 5421 5425 5428 5431 5432 5433 5433 5434 5434 5433 5433 5432 5433 5433 5432 5431 5430 5428 5427 5430 5432 5433 5433 5436 5436 5438 5439 5440 5439 5436 5435 5436 5437 5436 5436 5434 5434 5435 5433 5431 5430 5430 5430 5430 5431
5378 5382 5386 5390 5395 5400 5404 5410 5415 5419 5423 5425 5427 5428 5429 5429 5429 5430 5431 5433 5433 5432 5431 5429 5427 5426 5427 5427 5428 5428 5428 5430 5431 5433 5435 5435 5435 5435 5434 5434 5434 5433 5432 5432 5431 5430 5428 5426 5424 5423 5422 5421 5421 5421
5376 5379 5383 5387 5392 5395 5402 5408 5413 5417 5420 5421 5423 5424 5425 5427 5429 5430 5431 5430 5429 5428 5427 5427 5427 5427 5424 5425 5426 5426 5427 5427 5428 5430 5431 5431 5431 5431 5431 5430 5429 5428 5428 5427 5426 5425 5423 5420 5419 5418 5416 5416 5415 5415
5378 5377 5378 5382 5388 5394 5401 5407 5412 5416 5417 5418 5420 5423 5425 5427 5428 5428 5428 5427 5427 5426 5425 5425 5424 5425 5424 5424 5423 5424 5425 5425 5426 5427 5427 5427 5427 5426 5425 5423 5423 5423 5422 5421 5420 5419 5418 5416 5414 5413 5411 5410 5410 5409
5389 5387 5384 5383 5386 5393 5401 5408 5412 5415 5416 5418 5422 5425 5426 5427 5427 5427 5427 5426 5426 5425 5424 5424 5424 5423 5423 5423 5423 5423 5423 5423 5423 5423 5422 5421 5420 5420 5419 5418 5417 5416 5416 5415 5414 5413 5412 5410 5409 5407 5406 5405 5404 5404
5402 5401 5399 5399 5400 5403 5407 5412 5416 5418 5420 5422 5424 5425 5426 5426 5427 5427 5426 5426 5425 5424 5424 5423 5423 5423 5421 5420 5420 5420 5420 5420 5418 5417 5415 5414 5413 5411 5410 5410 5409 5409 5408 5408 5407 5406 5405 5403 5402 5401 5399 5398 5398 5398
5411 5411 5411 5412 5413 5414 5416 5417 5419 5420 5422 5423 5424 5425 5425 5425 5424 5424 5423 5423 5422 5421 5420 5420 5419 5419 5417 5416 5415 5413 5412 5411 5410 5408 5408 5406 5404 5402 5401 5400 5399 5399 5399 5398 5398 5397 5396 5395 5393 5392 5391 5390 5389 5389
5416 5417 5417 5417 5418 5418 5419 5420 5421 5421 5422 5422 5422 5422 5422 5421 5420 5419 5418 5417 5416 5415 5414 5412 5411 5411 5410 5408 5407 5405 5403 5402 5400 5399 5397 5395 5395 5393 5391 5390 5390 5388 5388 5387 5386 5386 5385 5384 5383 5382 5380 5380 5380 5379
5417 5417 5417 5418 5418 5419 5419 5420 5420 5420 5420 5420 5418 5417 5416 5414 5413 5410 5409 5408 5407 5405 5403 5402 5400 5398 5396 5395 5394 5392 5390 5388 5387 5386 5385 5383 5381 5380 5378 5377 5376 5375 5374 5374 5373 5373 5372 5371 5370 5370 5369 5369 5370 5370
5418 5418 5417 5416 5416 5416 5416 5416 5415 5414 5413 5412 5410 5409 5408 5406 5404 5402 5400 5397 5396 5394 5392 5390 5388 5386 5384 5382 5381 5379 5377 5375 5373 5371 5370 5370 5367 5365 5363 5362 5361 5360 5359 5359 5358 5358 5358 5358 5358 5358 5357 5358 5359 5360
5420 5419 5418 5416 5415 5414 5413 5412 5411 5410 5409 5407 5405 5403 5402 5400 5398 5395 5393 5391 5389 5387 5384 5381 5379 5376 5374 5371 5370 5367 5364 5361 5359 5357 5355 5353 5351 5349 5348 5347 5346 5345 5345 5345 5345 5345 5346 5346 5346 5346 5346 5347 5347 5348
5421 5419 5417 5416 5415 5413 5413 5410 5409 5407 5405 5404 5402 5399 5397 5395 5392 5390 5387 5385 5383 5379 5376 5372 5369 5367 5365 5362 5360 5356 5353 5349 5347 5343 5339 5336 5333 5331 5330 5329 5329 5330 5331 5331 5332 5333 5333 5333 5333 5334 5335 5336 5336 5336
5422 5420 5417 5416 5414 5412 5410 5409 5406 5404 5402 5400 5397 5395 5393 5390 5388 5385 5382 5380 5376 5373 5369 5366 5362 5358 5356 5353 5349 5345 5341 5337 5333 5328 5324 5320 5316 5313 5312 5311 5312 5312 5314 5316 5318 5319 5320 5321 5321 5322 5323 5324 5325 5326
5423 5421 5419 5416 5413 5411 5408 5405 5403 5401 5398 5396 5393 5391 5388 5385 5382 5379 5376 5374 5369 5365 5362 5358 5354 5350 5346 5342 5338 5334 5328 5323 5318 5312 5306 5301 5298 5296 5294 5294 5295 5297 5299 5302 5303 5305 5306 5308 5309 5311 5312 5313 5313 5314
5421 5420 5418 5415 5412 5410 5407 5404 5401 5398 5395 5392 5389 5386 5383 5380 5377 5373 5370 5366 5362 5358 5355 5350 5346 5341 5336 5332 5327 5322 5315 5308 5300 5294 5289 5284 5280 5279 5278 5278 5279 5282 5284 5287 5290 5292 5293 5295 5297 5299 5300 5301 5302 5302
5420 5418 5415 5413 5410 5407 5405 5402 5399 5396 5393 5390 5386 5382 5379 5375 5371 5368 5363 5359 5355 5351 5346 5342 5337 5332 5327 5322 5315 5308 5301 5294 5286 5279 5272 5266 5263 5261 5262 5263 5265 5267 5270 5273 5276 5279 5282 5284 5286 5288 5289 5290 5291 5291
5416 5414 5412 5410 5408 5405 5402 5399 5395 5392 5389 5386 5382 5378 5374 5369 5366 5362 5357 5352 5347 5343 5338 5333 5327 5321 5317 5311 5304 5297 5288 5280 5273 5264 5256 5250 5246 5244 5246 5248 5250 5253 5257 5260 5263 5267 5270 5273 5276 5278 5279 5280 5281 5281
5411 5410 5409 5407 5404 5402 5399 5396 5392 5389 5385 5381 5378 5373 5369 5365 5360 5355 5351 5345 5340 5335 5330 5323 5317 5311 5306 5300 5293 5286 5278 5270 5261 5252 5244 5237 5233 5231 5232 5234 5238 5241 5245 5249 5252 5256 5259 5263 5265 5268 5269 5270 5271 5271
5407 5405 5403 5401 5400 5397 5395 5392 5388 5385 5381 5377 5373 5369 5364 5359 5355 5350 5345 5339 5333 5328 5322 5315 5309 5302 5295 5290 5284 5276 5270 5262 5254 5246 5237 5230 5225 5222 5222 5224 5228 5232 5236 5240 5244 5247 5250 5253 5256 5258 5260 5261 5262 5262
5401 5399 5398 5396 5394 5392 5390 5387 5384 5380 5376 5372 5368 5364 5359 5354 5349 5343 5338 5332 5326 5320 5313 5307 5301 5294 5287 5282 5277 5270 5263 5257 5249 5242 5234 5227 5222 5219 5218 5219 5222 5226 5230 5233 5236 5239 5243 5246 5248 5250 5252 5253 5253 5254
5395 5393 5391 5390 5388 5386 5384 5382 5379 5375 5371 5367 5362 5358 5353 5348 5343 5338 5332 5326 5320 5313 5306 5300 5293 5286 5280 5273 5268 5263 5257 5251 5246 5240 5234 5228 5223 5220 5219 5219 5220 5223 5225 5228 5230 5232 5235 5238 5241 5243 5244 5245 5245 5245
5387 5386 5384 5382 5381 5379 5377 5376 5373 5370 5366 5361 5357 5352 5347 5343 5338 5332 5326 5319 5313 5306 5299 5292 5285 5278 5272 5266 5260 5257 5252 5247 5243 5238 5234 5230 5226 5223 5221 5221 5221 5222 5223 5224 5226 5228 5230 5232 5234 5235 5237 5237 5238 5238
Wind_Speed
47 48 49 52 53 53 51 44 42 40 42 45 36 35 36 34 29 29 30 28 28 27 27 27 30 32 35 37 39 40 46 52 54 54 54 48 46 48 47 50 44 42 41 38 40 35 35 36 35 30 30 26 18 21
34 37 37 36 38 38 40 41 32 32 31 32 26 25 25 26 27 26 26 27 29 29 30 33 38 40 41 42 44 49 54 55 55 54 47 46 46 38 39 37 43 45 41 37 28 29 27 24 36 34 25 20 27 24
35 39 42 42 43 42 41 40 38 35 33 33 29 27 26 27 28 29 30 32 32 33 36 39 41 43 44 48 49 48 51 52 48 45 45 46 47 49 44 47 48 49 46 39 35 26 34 26 29 31 31 26 25 25
33 34 34 36 38 40 38 35 33 31 32 32 31 30 29 29 31 32 33 35 37 38 39 42 44 47 50 48 44 43 39 36 33 35 39 43 45 48 47 45 42 40 39 42 44 36 35 40 37 36 30 28 25 26
34 33 33 35 36 35 32 31 31 32 31 30 31 33 32 32 34 34 36 38 41 40 41 45 47 45 42 39 34 33 31 31 32 34 34 34 42 49 47 42 40 44 41 46 46 41 36 31 27 27 28 25 27 34
37 35 35 34 32 31 32 33 31 31 31 33 34 34 33 32 34 37 35 37 40 44 43 38 36 36 34 30 28 28 27 28 30 27 27 27 27 31 32 32 39 51 46 44 42 44 44 39 34 30 27 25 28 30
35 35 33 31 29 29 30 30 31 32 31 31 30 29 29 28 29 31 33 33 34 33 30 28 28 25 22 20 19 20 19 18 19 17 15 15 15 19 17 15 5 13 25 34 46 50 45 40 38 41 39 33 31 31
31 31 26 23 21 24 22 23 25 25 24 24 24 23 22 23 24 26 28 27 26 25 25 21 20 20 20 20 20 19 18 15 12 11 12 12 13 15 9 5 12 16 19 20 22 25 25 26 28 30 31 35 33 27
30 26 25 25 25 22 19 18 19 20 20 20 21 20 20 21 22 23 23 20 19 19 19 20 21 22 21 22 21 19 19 19 17 14 12 15 15 9 11 16 18 21 22 21 22 21 21 22 29 26 25 29 31 32
31 26 22 22 22 22 23 24 24 23 19 19 15 15 16 16 17 17 16 16 16 18 20 23 25 26 25 23 21 19 18 17 12 12 16 15 11 14 13 11 11 13 15 17 19 20 20 23 27 28 29 31 33 32
27 27 27 27 28 29 29 29 25 21 16 14 15 15 13 13 15 16 16 15 20 22 21 11 7 13 22 23 21 20 18 19 18 16 15 9 8 7 9 9 11 14 14 14 18 18 21 26 29 30 30 31 34 32
27 27 27 28 28 27 28 26 24 22 18 17 15 13 14 15 14 12 11 7 3 6 2 5 7 8 12 12 14 14 16 20 17 20 15 9 6 10 15 14 11 17 15 15 11 14 21 24 25 28 31 30 31 30
24 26 27 25 27 32 27 23 22 20 17 15 17 19 13 10 4 6 10 8 2 3 5 6 11 7 3 4 7 9 12 12 16 16 13 8 7 9 14 17 17 17 15 14 13 17 20 18 17 18 21 22 20 22
13 23 27 32 37 31 30 28 26 22 19 14 11 10 4 9 15 9 2 1 0 2 3 8 3 6 9 8 14 7 6 6 10 12 11 9 11 14 13 15 17 17 16 17 17 17 17 17 15 16 16 15 15 19
22 12 11 26 33 34 29 23 18 12 8 8 7 11 14 10 7 7 8 4 3 9 3 6 4 6 10 5 8 10 7 8 10 11 13 15 16 17 16 15 21 22 23 23 24 20 19 18 16 16 17 18 18 18
39 39 33 25 19 19 20 17 13 12 14 18 18 15 13 11 9 10 9 8 3 6 2 4 3 5 2 5 7 10 10 9 12 16 19 21 23 23 24 28 30 28 27 27 26 24 24 24 23 20 18 19 21 21
27 29 34 37 37 36 32 25 24 20 19 17 15 13 10 6 5 6 5 4 5 4 3 5 4 2 9 9 11 9 13 13 19 23 27 28 27 30 33 33 32 31 32 30 28 28 29 29 27 25 25 25 24 25
17 19 21 23 22 20 19 18 16 15 13 10 10 10 8 7 9 10 12 13 14 14 14 16 15 11 15 19 22 16 18 23 26 26 30 32 36 35 36 38 39 37 36 36 34 34 35 35 34 32 31 29 28 27
8 7 8 9 10 11 10 9 7 5 7 8 11 12 13 15 17 19 21 23 24 24 25 28 29 28 28 28 29 31 35 37 38 39 41 42 42 43 46 45 43 43 43 42 40 40 41 41 39 37 34 29 28 27
10 8 5 4 6 9 11 11 12 11 12 13 18 20 22 26 28 31 32 33 33 34 35 33 33 34 36 36 36 37 39 41 42 44 47 49 50 52 52 53 53 52 49 47 47 48 46 41 38 37 34 30 30 30
11 10 9 8 7 3 0 3 6 7 9 13 15 15 15 18 21 23 24 24 23 22 21 19 21 22 26 30 35 38 40 42 44 46 48 49 50 52 53 53 52 51 50 49 47 45 40 36 36 35 33 33 31 32
10 9 8 8 7 6 6 7 7 7 6 6 9 10 10 11 12 13 14 16 16 19 21 23 26 27 28 29 29 32 34 36 38 41 42 44 47 48 49 49 47 46 44 43 40 39 38 37 33 32 31 31 32 34
12 11 10 9 8 9 9 8 8 9 8 8 10 11 12 13 14 16 16 16 17 20 24 27 29 28 28 27 28 30 32 34 36 39 42 43 44 45 45 46 47 45 40 37 38 36 35 32 31 31 34 34 33 34
16 14 12 12 11 10 11 10 11 11 12 12 12 13 14 16 16 17 17 17 20 22 24 25 26 27 27 28 30 32 34 36 38 40 42 43 43 43 43 42 40 39 39 37 35 34 34 33 30 29 30 32 32 32
16 15 15 15 14 14 14 15 15 15 15 16 15 16 16 17 17 18 20 19 22 24 25 26 27 28 29 31 33 35 38 40 42 44 45 44 42 40 38 37 36 35 36 37 35 34 33 34 33 32 31 31 32 33
16 16 15 17 16 17 17 17 17 17 18 19 20 20 20 20 21 22 20 21 23 23 24 26 28 30 32 34 35 37 40 44 47 45 43 42 40 38 36 35 35 34 35 36 36 34 33 33 32 31 31 31 31 30
14 16 17 18 18 18 19 20 21 21 21 22 23 24 25 26 25 26 26 27 27 27 28 28 29 30 32 34 36 39 42 44 44 44 42 40 39 36 34 34 34 34 34 36 37 35 33 30 27 27 27 28 29 30
14 15 17 19 20 20 20 21 22 22 23 24 24 26 27 28 30 30 31 32 32 33 34 34 34 34 33 34 36 39 42 42 42 40 36 33 31 31 32 32 32 32 33 33 34 35 34 31 29 29 28 27 26 25
15 14 16 18 19 21 22 22 23 24 24 25 26 27 28 30 31 33 34 36 37 37 38 39 38 39 36 35 36 39 39 39 41 39 33 30 25 24 26 29 29 30 29 29 29 31 31 30 28 27 26 26 26 26
16 16 16 18 19 21 22 23 24 25 25 25 26 28 30 32 33 35 36 39 41 41 41 42 41 40 38 35 36 38 37 37 38 37 33 27 21 18 19 22 24 25 25 26 25 24 23 24 25 24 24 25 25 26
16 16 17 17 19 20 21 23 25 26 27 27 28 29 30 32 35 36 38 40 42 42 43 44 42 40 38 35 33 34 36 34 35 34 32 26 19 12 10 14 16 18 19 21 23 24 24 24 25 25 26 26 28 30
17 17 18 18 20 21 22 22 24 26 27 29 30 31 33 34 36 38 40 41 42 43 44 44 42 42 40 35 31 30 32 31 30 29 27 24 18 11 6 6 8 9 10 13 17 21 23 25 26 26 28 29 28 26
18 19 19 20 20 22 24 23 24 25 27 29 31 32 34 35 37 39 40 42 43 44 46 46 44 42 39 33 28 26 27 27 25 23 20 19 16 12 8 3 2 4 6 7 9 11 13 15 17 18 18 18 17 16
Wind_Direction
180 193 206 208 215 218 217 217 219 221 225 230 230 235 242 244 249 255 256 260 258 261 268 268 275 284 289 288 286 284 287 293 291 284 277 274 267 266 264 263 260 270 275 281 277 270 259 254 265 268 278 268 247 253
167 180 182 190 196 204 210 214 219 223 226 233 232 230 230 232 238 249 252 252 254 261 268 272 278 284 289 290 287 289 289 287 280 272 269 263 262 261 269 265 271 271 275 273 260 257 259 226 258 269 265 286 280 282
182 185 188 193 196 203 211 217 219 225 235 236 234 232 233 238 242 250 254 258 260 263 268 268 277 284 286 286 289 288 283 277 275 271 268 264 263 265 266 271 270 270 271 258 243 246 250 262 251 257 270 279 288 287
186 194 200 202 205 209 214 217 220 226 231 231 234 236 240 247 249 252 257 262 264 267 270 275 281 285 286 288 287 285 280 279 277 269 264 265 267 264 264 267 267 263 255 251 243 246 254 252 267 274 272 274 289 288
199 205 208 208 214 217 219 224 222 224 229 233 237 244 247 250 252 255 258 261 265 269 276 280 283 283 283 284 281 279 278 275 269 272 273 265 259 260 261 264 264 256 257 258 255 251 256 258 263 265 265 272 286 291
205 207 209 213 217 223 225 224 223 228 235 238 241 247 246 250 253 259 261 266 274 281 283 283 282 279 276 278 276 273 270 272 274 273 273 272 266 265 269 268 260 253 256 257 252 258 264 260 262 263 261 268 277 279
197 197 198 204 206 213 219 226 230 234 235 239 240 245 249 250 259 266 271 276 281 279 275 279 277 272 271 274 269 266 266 264 269 274 276 271 264 268 277 274 258 238 246 252 254 257 260 263 264 263 263 263 277 270
199 199 202 204 209 217 218 225 231 232 231 237 243 249 256 262 268 271 276 275 273 273 276 272 266 274 269 263 258 255 249 256 258 258 258 263 258 277 301 258 222 232 246 255 254 260 264 265 270 268 265 262 265 264
211 215 219 224 232 233 231 229 230 232 236 240 245 244 249 258 263 268 269 270 276 275 272 269 264 260 265 268 266 255 255 261 276 270 259 264 272 300 271 251 239 239 256 261 265 265 261 260 262 268 260 260 265 262
222 227 221 219 214 212 208 204 209 214 218 227 229 237 243 248 256 262 271 275 273 268 268 267 267 267 266 265 261 249 254 257 265 267 263 263 282 269 260 267 258 261 265 265 260 263 266 264 261 261 264 270 269 259
208 209 206 208 207 204 201 203 208 208 210 225 233 232 244 263 266 265 266 271 265 270 278 288 321 283 256 246 245 243 246 249 246 233 252 244 308 285 282 265 269 282 296 273 263 266 270 272 268 268 268 271 269 263
205 206 204 202 200 205 210 205 206 208 223 236 240 257 274 276 262 272 290 273 168 131 240 283 318 336 338 244 236 245 244 245 249 243 241 275 323 243 296 323 299 309 321 307 305 308 295 285 276 268 265 263 263 264
205 209 209 208 203 190 199 205 212 222 235 246 267 273 265 270 215 163 147 132 59 281 276 245 321 310 279 292 254 260 263 260 249 253 253 280 276 285 290 301 303 304 303 292 286 302 306 294 302 286 275 271 269 268
197 207 208 205 206 211 209 213 219 229 254 248 223 242 206 161 142 137 64 264 325 321 303 240 280 267 215 238 247 297 267 245 227 222 240 270 276 287 290 304 292 290 286 295 298 296 297 317 303 310 295 285 272 263
77 97 183 208 211 217 223 229 232 232 234 225 179 156 158 144 138 124 120 92 37 13 14 305 274 232 225 241 254 271 247 236 231 237 255 272 288 277 282 286 297 286 289 293 296 295 297 303 307 301 300 298 294 286
77 76 79 98 137 175 191 188 164 139 132 132 144 153 143 131 134 131 133 144 78 10 310 299 333 277 265 307 295 269 263 250 241 256 270 273 271 274 274 280 291 287 288 288 285 291 298 300 298 293 295 292 288 286
84 85 88 90 95 101 106 115 121 127 138 142 151 153 145 145 164 207 217 241 277 264 261 255 267 272 300 290 286 287 287 279 268 269 272 279 279 278 277 279 282 282 279 281 282 283 289 291 291 292 293 288 287 283
90 95 99 104 104 103 115 128 137 141 149 158 171 186 205 217 226 237 253 257 262 264 261 268 262 256 254 249 257 256 229 249 254 252 255 256 267 268 274 279 282 283 281 279 277 280 284 285 286 285 283 278 278 278
91 109 125 133 137 140 142 153 165 200 221 235 249 247 249 254 253 254 257 257 258 260 265 265 266 265 264 262 257 255 253 253 257 260 261 261 260 262 269 275 275 277 277 278 276 277 280 280 280 280 283 271 269 268
58 66 79 123 185 208 215 220 223 234 243 258 263 263 263 269 271 272 272 272 269 267 268 269 266 264 263 263 261 259 257 256 257 257 258 261 263 266 268 271 273 274 273 270 271 273 276 277 273 274 278 265 263 265
52 47 42 35 41 45 6 244 268 267 264 267 268 268 271 276 278 279 280 283 288 288 289 290 285 281 278 273 269 268 267 266 266 264 262 263 265 265 267 269 271 274 275 276 276 275 273 272 273 266 272 257 259 262
45 45 44 35 29 18 5 4 349 341 341 307 307 312 307 294 295 297 299 303 306 299 298 293 288 286 288 290 289 285 281 280 279 279 278 275 273 272 272 272 273 273 272 271 272 272 270 268 270 267 264 259 258 256
22 21 18 18 12 3 358 356 350 339 340 328 323 319 315 314 312 313 314 313 306 298 293 296 301 302 299 298 297 295 294 294 293 290 289 286 283 279 276 273 269 268 270 268 264 265 261 262 263 258 259 257 253 252
9 9 7 5 360 356 355 350 350 344 338 337 332 325 318 314 315 312 314 307 302 303 306 310 308 305 302 301 302 302 302 302 301 299 295 291 287 283 277 274 271 266 262 260 259 256 255 257 257 256 254 253 250 252
359 2 357 359 356 355 351 347 346 343 338 334 334 328 323 325 320 316 310 314 307 308 312 311 312 310 307 305 304 305 306 306 305 302 298 293 289 283 277 271 266 261 255 253 256 256 256 254 253 254 254 254 255 257
339 342 348 347 348 349 346 346 344 342 340 339 337 337 334 332 328 327 327 315 312 311 308 307 308 309 310 310 310 310 311 310 308 305 300 293 286 280 274 268 262 257 252 249 250 254 256 256 257 258 258 258 260 262
318 321 326 329 336 337 339 339 336 337 336 337 335 335 334 334 334 333 330 328 327 324 321 319 316 314 313 314 314 314 315 314 313 312 307 298 287 276 268 262 258 254 251 247 246 249 253 254 254 256 260 262 263 264
307 308 310 314 319 324 329 329 329 329 329 330 330 330 330 328 327 330 330 331 330 329 329 328 325 323 323 320 319 320 322 322 322 320 312 303 290 276 263 256 253 251 248 247 246 246 249 252 254 255 260 261 262 265
303 300 301 302 306 312 317 321 320 321 321 323 324 324 325 324 323 325 327 328 328 330 332 329 329 330 328 326 324 325 329 329 331 332 325 316 297 276 259 250 247 246 246 245 244 243 242 247 251 252 254 258 261 264
302 298 296 296 297 302 309 313 315 315 316 316 317 319 320 321 322 323 326 326 327 330 329 326 329 332 328 328 326 328 333 333 337 339 338 332 318 288 261 248 243 242 241 241 241 240 238 240 243 247 250 254 258 262
301 298 294 290 290 293 299 306 311 312 313 314 314 315 317 319 322 323 325 325 327 329 326 327 332 329 327 328 326 329 333 335 340 343 348 346 339 317 271 253 245 240 240 239 239 236 232 235 239 242 247 252 260 268
299 296 292 288 286 286 290 297 304 308 311 313 313 314 317 320 321 322 325 326 327 328 327 329 330 326 327 327 325 327 332 334 338 344 350 356 358 348 319 273 256 247 242 240 239 240 242 242 246 252 258 265 272 276
297 296 293 289 285 284 287 292 296 301 308 310 311 312 315 318 320 323 324 326 328 329 329 332 333 330 330 328 321 322 329 332 335 340 345 356 6 11 15 7 291 265 256 247 240 237 238 242 247 253 258 264 269 274